Flag for Germany Weather past 2 weeks in Hanau, Hesse, Germany

Now
59 °F

Partly sunny.


Feels Like: 56 °F
Forecast: 40 / 47 °F
Wind: 18 mph from Southwest

Location: Frankfurt-M-Flughafen Airport

Current Time: Oct 21, 2014 at 2:18:42 PM

Latest Report: Oct 21, 2014 at 1:50 PM


Visibility: N/A

Pressure: 29.74 "Hg

Humidity: 72%

Dew point: 50 °F

Location of HanauLocation

Historic Weather in Hanau — Graph

°F

Hanau temperature yesterday

Maximum temperature yesterday: 66 °F (at 12:20 PM)
Minimum temperature yesterday: 50 °F (at 10:20 PM)
Average temperature yesterday: 61 °F

Past Weeks' High & Low Weather Summary

 TemperatureHumidityPressure
High72 °F (Oct 19, 3:50 PM)100% (Oct 6, 11:20 PM)30.18 "Hg (Oct 6, 11:20 PM)
Low45 °F (Oct 21, 4:20 AM)60% (Oct 20, 1:50 PM)29.65 "Hg (Oct 7, 9:20 AM)
Average58 °F92%29.89 "Hg
* Reported Oct 6 1:20 PM — Oct 21 1:20 PM, Hanau, Weather by CustomWeather, © 2014

Note: Actual official high and low records may vary slightly from our data, if they occured in-between our weather recording intervals... More about our weather records

Advertising

Hanau weather history for previous 24 hours

 ConditionsComfort  
Time TempWeatherWind HumidityBarometerVisibility
1:20 PM
Oct 21
57 °FPartly sunny.15 mph77%29.77 "HgN/A
12:50 PM57 °FBroken clouds.14 mph72%29.77 "HgN/A
12:20 PM57 °FSprinkles. Broken clouds.13 mph72%29.80 "HgN/A
11:50 AM57 °FBroken clouds.14 mph77%29.83 "HgN/A
11:20 AM55 °FBroken clouds.3 mph88%29.86 "HgN/A
10:50 AM54 °FBroken clouds.3 mph88%29.86 "HgN/A
10:20 AM52 °FPartly sunny.6 mph94%29.86 "HgN/A
9:50 AM52 °FScattered clouds.3 mph94%29.89 "HgN/A
9:20 AM50 °FScattered clouds.5 mph94%29.89 "HgN/A
8:50 AM48 °FPassing clouds.7 mph100%29.89 "HgN/A
8:20 AM48 °FPassing clouds.5 mph94%29.89 "HgN/A
7:50 AM48 °FPartly cloudy.5 mph94%29.92 "HgN/A
7:20 AM48 °FPartly cloudy.7 mph94%29.89 "HgN/A
6:50 AM46 °FFog.5 mph100%29.92 "HgN/A
6:20 AM46 °FFog.5 mph93%29.92 "HgN/A
5:50 AM46 °FFog.2 mph100%29.92 "HgN/A
5:20 AM45 °FFog.No wind100%29.95 "HgN/A
4:50 AM45 °FFog.1 mph100%29.95 "HgN/A
4:20 AM45 °FFog.3 mph100%29.95 "HgN/A
3:50 AM46 °FFog.3 mph93%29.95 "HgN/A
3:20 AM46 °FFog.2 mph93%29.98 "HgN/A
2:50 AM46 °FClear.5 mph93%29.98 "Hg10 mi
2:20 AM46 °FFog.2 mph93%29.98 "HgN/A
1:50 AM46 °FFog.2 mph100%29.98 "HgN/A
1:20 AM48 °FFog.1 mph94%29.98 "HgN/A
12:50 AM48 °FFog.No wind94%29.98 "HgN/A
12:20 AM48 °FFog.1 mph94%29.98 "HgN/A
11:50 PM
Oct 20
50 °FFog.2 mph94%29.98 "HgN/A
11:20 PM50 °FFog.5 mph94%30.01 "HgN/A
10:50 PM50 °FFog.2 mph94%30.01 "HgN/A
10:20 PM50 °FFog.3 mph94%30.01 "HgN/A
9:50 PM52 °FFog.5 mph94%30.01 "HgN/A
9:20 PM52 °FPassing clouds.3 mph94%30.01 "HgN/A
8:50 PM54 °FPassing clouds.3 mph94%30.01 "HgN/A
8:20 PM55 °FPassing clouds.3 mph88%30.01 "HgN/A
7:50 PM55 °FPassing clouds.5 mph88%30.01 "HgN/A
7:20 PM55 °FPartly sunny.3 mph94%30.01 "HgN/A
6:50 PM57 °FPartly sunny.3 mph88%30.01 "HgN/A
6:20 PM59 °FBroken clouds.5 mph82%30.01 "HgN/A
5:50 PM63 °FPartly sunny.6 mph64%30.01 "HgN/A
5:20 PM63 °FPartly sunny.8 mph64%30.04 "HgN/A
4:50 PM63 °FPartly sunny.7 mph64%30.04 "HgN/A
4:20 PM64 °FPartly sunny.8 mph60%30.04 "HgN/A
3:50 PM66 °FBroken clouds.8 mph60%30.04 "HgN/A
3:20 PM66 °FBroken clouds.9 mph60%30.04 "HgN/A
2:50 PM66 °FBroken clouds.10 mph60%30.04 "HgN/A
2:20 PM66 °FBroken clouds.15 mph60%30.04 "HgN/A
Weather by CustomWeather, © 2014

See weather overviewHow to use our weather pages